Location: *
(45.8589°N, 4.7139°E)
Time: 07:37:35
(UTC+00:00)

Daily predictions for brighter satellites

Satellite Brightness Start Highest point End
(mag) Time Altitude Azimuth Time Altitude Azimuth Time Altitude Azimuth
Cosmos 2369 Rocket 3.3 18:45:14 10° NW 18:50:41 49° WSW 18:56:05 10° S
ARGOS Delta rocket 4.2 18:46:22 10° SSE 18:51:43 82° ENE 18:57:14 10° N
IRIDIUM 114 4.3 18:50:07 10° N 18:55:22 79° E 19:00:36 10° S
Cosmos 2058 Rocket 3.8 18:54:58 10° SSE 18:58:58 32° E 19:03:00 10° NNE
Cosmos 1726 Rocket 3.7 18:57:17 10° S 19:01:33 52° E 19:05:54 10° NNE
SL-08 RB Rocket 4.2 18:58:05 10° SE 19:02:24 43° ENE 19:06:47 10° N
STARLINK-1228 3.1 19:00:01 10° NW 19:02:55 55° NNE 19:05:31 12° ESE
Cosmos 1461 3.2 18:58:41 10° NNW 19:03:11 63° NE 19:07:49 10° SE
IRIDIUM 103 4.4 18:59:19 10° N 19:04:34 87° W 19:09:47 10° S
Cosmos 921 Rocket 3.6 19:01:54 10° N 19:05:49 36° ENE 19:09:42 10° SE
SL-4 R/B 2.2 19:02:49 10° W 19:06:09 53° NNW 19:09:32 10° ENE
Cosmos 1726 2.6 19:02:32 10° SSW 19:06:15 67° W 19:09:58 10° N
Cosmos 1703 3.2 19:02:25 10° N 19:06:24 70° E 19:10:21 10° SSE
Meteor 2-10 4.4 19:02:39 10° SSW 19:08:09 78° WNW 19:13:51 10° N
Cosmos 1437 3.7 19:05:41 10° NNW 19:08:36 46° W 19:11:30 10° S
CZ-4C R/B 4.5 19:04:01 10° NNW 19:08:49 20° NNE 19:14:10 10° ENE
Cosmos 2184 Rocket 4.1 19:02:37 10° N 19:08:57 89° W 19:15:09 10° S
ADEOS Rocket 4.2 19:03:27 10° N 19:09:26 46° WNW 19:14:53 10° SW
Cosmos 407 Rocket 3.4 19:04:30 10° S 19:09:34 63° ESE 19:14:39 10° NNE
Cosmos 1825 Rocket 3.7 19:05:22 10° N 19:09:46 81° W 19:14:06 10° S
Cosmos 1908 3.2 19:06:10 10° S 19:09:59 64° E 19:13:52 10° NNE
Cosmos 1340 Rocket 3.2 19:06:38 10° SSE 19:10:27 42° E 19:14:16 10° NNE
FREGAT/IRIS 2.2 19:08:26 10° SSE 19:11:09 80° ENE 19:13:52 10° N
STARLINK-1201 3.6 19:08:46 10° NW 19:11:57 47° NNE 19:14:33 14° E
Cosmos 2228 3.0 19:08:08 10° S 19:12:26 81° E 19:16:49 10° N
Cosmos 1656 Rocket 4.1 19:06:58 10° NNW 19:12:35 67° WSW 19:18:05 10° SSE
Cosmos 1328 3.7 19:09:05 10° N 19:13:07 81° E 19:17:07 10° S
Cosmos 1943 4.1 19:11:04 10° SW 19:16:36 54° WNW 19:22:12 10° NNE
MOS 1 4.3 19:12:45 10° SSE 19:18:24 86° ENE 19:24:07 10° NNW
MetOp-A 4.4 19:14:11 10° SE 19:19:19 49° ENE 19:24:29 10° N
Resurs 01 Rocket 2.6 19:17:43 14° ESE 19:20:47 29° ENE 19:24:35 10° N
STARLINK-52 2.8 19:19:12 10° SW 19:22:24 70° SE 19:25:36 10° ENE
MOS 1 Rocket 4.2 19:18:12 10° NNE 19:23:12 37° E 19:28:12 10° SSE
CZ-2C R/B 3.2 19:19:50 10° NNE 19:24:32 34° E 19:29:14 10° SSE
Nadezhda 1 Rocket 4.0 19:18:21 10° S 19:24:44 80° E 19:31:05 10° N
BREEZE M DEB (TANK) 3.3 19:22:30 10° SSW 19:25:15 33° SE 19:31:24 10° ENE
STARLINK-1230 4.5 19:21:30 10° NW 19:25:27 41° NNE 19:28:37 15° E
SPOT 3 Rocket 3.6 19:23:15 10° SSE 19:28:23 62° ENE 19:33:32 10° N
Cosmos 1023 Rocket 4.4 19:23:23 10° S 19:28:31 70° ESE 19:33:38 10° NNE
SL-24 R/B - RUBIN 2 4.3 19:23:24 10° SW 19:29:00 88° NW 19:35:22 10° NE
ARGOS 3.3 19:24:27 10° S 19:29:50 79° WSW 19:35:15 10° NNW
STARLINK-1243 4.4 19:26:28 10° NW 19:30:27 43° NNE 19:33:24 17° E
FALCON 9 DEB 3.1 19:27:14 10° SW 19:30:43 83° SSE 19:34:14 10° ENE
Cosmos 2154 Rocket 4.0 19:25:35 10° N 19:31:58 88° E 19:38:18 10° S
Cosmos 1606 Rocket 4.2 19:27:48 10° SSW 19:32:11 59° WNW 19:36:37 10° N
Cosmos 1953 Rocket 3.9 19:28:21 10° NNW 19:32:50 69° W 19:37:17 10° S
GEOS 3 Rocket 4.3 19:28:16 10° SSE 19:33:13 51° WSW 19:38:20 10° NW
NOSS 3-4 (A) 4.1 19:27:49 10° NW 19:34:49 71° SW 19:42:31 10° SSE
Cosmos 1954 Rocket 4.1 19:29:46 10° S 19:34:49 51° ESE 19:39:52 10° NNE
NOSS 3-4 (C) 4.1 19:27:55 10° NW 19:34:56 71° SW 19:42:37 10° SSE
Cosmos 2181 Rocket 4.5 19:29:28 10° SSE 19:35:08 38° E 19:40:45 10° NNE
USA 186 2.8 19:32:16 10° S 19:35:25 45° W 19:38:27 10° NNW
STARLINK-1236 4.3 19:31:27 10° NW 19:35:28 45° NNE 19:38:11 18° E
STARLINK-67 3.3 19:35:59 10° WNW 19:38:24 38° SW 19:39:24 25° SSE
Meteor 1-11 4.5 19:37:18 10° NNW 19:43:03 75° W 19:48:41 10° S
Cosmos 1076 Rocket 4.5 19:41:18 10° NNE 19:45:04 29° ENE 19:46:20 24° ESE
STARLINK-1269 4.2 19:41:24 10° NW 19:45:27 50° NNE 19:47:44 23° E
BREEZE-M DEB (TANK) 4.3 19:41:05 10° SSW 19:45:35 25° SSE 19:45:56 24° SE
Cosmos 1763 Rocket 4.5 19:44:49 10° N 19:49:24 31° ENE 19:51:29 23° E
STARLINK-1200 4.1 19:46:22 10° NW 19:50:27 52° NNE 19:52:31 26° E
Cosmos 1455 4.5 19:56:33 11° ENE 19:56:33 11° ENE 19:56:59 10° NE
STARLINK-1234 3.2 19:51:54 10° WNW 19:54:58 57° SW 19:55:47 40° SSE
STARLINK-1192 4.0 19:51:21 10° NW 19:55:25 55° NNE 19:57:18 29° E
STARLINK-1209 3.3 19:52:22 10° WNW 19:55:26 53° SW 19:56:15 38° SSE
STARLINK-1233 2.8 19:52:44 10° WNW 19:55:52 77° SW 19:56:38 47° SE
STARLINK-1212 2.8 19:53:13 10° WNW 19:56:21 76° SSW 19:57:04 48° SE
STARLINK-1105 2.8 19:53:38 10° WNW 19:56:47 75° SW 19:57:31 48° SE
STARLINK-1206 2.8 19:54:07 10° WNW 19:57:14 74° SSW 19:57:55 49° SE
SeaSat 1 4.5 19:53:16 10° N 19:57:33 30° NW 20:01:48 10° WSW
STARLINK-1247 2.8 19:54:35 10° WNW 19:57:42 74° SSW 19:58:22 50° SE
STARLINK-1227 2.9 19:54:58 10° WNW 19:58:07 73° SW 19:58:47 50° SE
STARLINK-1218 2.9 19:55:29 10° WNW 19:58:35 72° SW 19:59:13 51° SSE
Iridium 4 Rocket 3.8 19:54:56 10° NNE 19:58:39 30° E 19:59:06 29° E
STARLINK-1226 2.9 19:55:54 10° WNW 19:59:02 72° SW 19:59:40 51° SSE
Cosmos 1980 Rocket 4.1 19:56:13 10° N 19:59:27 15° NE 20:02:02 12° ENE
STARLINK-1254 2.9 19:56:21 10° WNW 19:59:29 71° SSW 20:00:06 51° SSE
STARLINK-1215 2.9 19:56:50 10° WNW 19:59:57 70° SW 20:00:32 52° SSE
STARLINK-1231 2.9 19:57:17 10° WNW 20:00:24 70° SW 20:00:58 53° SSE
STARLINK-1244 3.9 19:56:25 10° NW 20:00:31 58° NNE 20:02:10 33° E
USA 234 3.8 19:54:50 10° ENE 20:00:38 33° SE 20:06:23 10° S
STARLINK-1232 2.9 19:58:12 10° WNW 20:01:17 68° SW 20:01:50 53° SSE
STARLINK-1217 2.9 19:58:38 10° WNW 20:01:45 68° SW 20:02:16 54° SSE
Abrixas rocket 2.1 19:58:56 10° WNW 20:01:51 55° SSW 20:02:07 52° S
Cosmos 1892 3.6 19:58:29 10° N 20:01:59 31° ENE 20:02:13 31° E
STARLINK-1208 2.9 19:59:03 10° WNW 20:02:11 67° SW 20:02:43 53° SSE
STARLINK-1229 2.9 19:59:32 10° WNW 20:02:38 66° SW 20:03:07 54° SSE
STARLINK-1271 2.9 20:00:00 10° WNW 20:03:06 66° SW 20:03:34 54° SSE
H-2A R/B 3.6 19:58:51 10° SSW 20:03:30 33° W 20:08:04 10° NNW
STARLINK-1270 2.9 20:00:27 10° WNW 20:03:33 65° SW 20:04:00 55° SSE
STARLINK-1154 2.9 20:00:54 10° WNW 20:04:00 65° SW 20:04:26 55° SSE
ATLAS 5 CENTAUR R/B 2.5 20:00:24 10° WSW 20:04:29 49° NW 20:09:06 10° NNE
STARLINK-1197 2.9 20:01:48 10° WNW 20:04:54 63° SW 20:05:18 55° S
STARLINK-1189 2.9 20:02:14 10° WNW 20:05:20 63° SW 20:05:43 55° S
STARLINK-1138 3.8 20:01:18 10° NW 20:05:26 62° NNE 20:06:52 37° E
STARLINK-1198 3.0 20:02:42 10° WNW 20:05:48 62° SW 20:06:10 56° S
STARLINK-1188 3.0 20:03:09 10° WNW 20:06:14 61° SW 20:06:35 56° S
Cosmos 1825 4.3 20:04:10 10° NNE 20:05:39 14° NE 20:05:39 14° NE
ATLAS 2AS CENTAUR R/B 3.7 19:59:47 10° NW 20:06:45 43° WSW 20:13:00 11° S
STARLINK-1235 3.4 20:03:50 10° WNW 20:06:54 47° SW 20:07:18 43° S
STARLINK-1187 3.2 20:04:14 10° WNW 20:07:20 53° SW 20:07:42 49° S
STARLINK-1199 3.0 20:05:06 10° WNW 20:08:12 59° SW 20:08:31 55° S
STARLINK-1191 3.0 20:05:33 10° WNW 20:08:38 59° SW 20:08:56 55° S
STARLINK-1210 3.0 20:06:00 10° WNW 20:09:06 58° SW 20:09:23 55° S
STARLINK-1221 3.1 20:06:27 10° WNW 20:09:33 57° SW 20:09:49 55° S
STARLINK-1219 3.1 20:06:54 10° WNW 20:10:00 57° SW 20:10:15 54° SSW
COSMOS 2455 3.1 20:04:01 10° NW 20:10:00 66° WSW 20:13:57 22° SSE
STARLINK-1143 3.7 20:06:16 10° NW 20:10:25 66° NNE 20:11:39 42° E
STARLINK-1222 3.1 20:07:21 10° WNW 20:10:27 56° SW 20:10:40 54° SSW
STARLINK-1211 3.1 20:07:49 10° WNW 20:10:55 56° SW 20:11:07 54° SSW
STARLINK-1214 3.1 20:08:15 10° WNW 20:11:21 55° SW 20:11:33 54° SSW
Cosmos 1140 Rocket 4.3 20:06:41 10° SW 20:11:45 53° WNW 20:16:49 10° NNE
STARLINK-1245 3.1 20:08:44 10° WNW 20:11:48 54° SW 20:11:57 54° SSW
STARLINK-1238 3.2 20:09:09 10° WNW 20:12:15 54° SW 20:12:25 53° SSW
STARLINK-1205 3.2 20:10:06 10° WNW 20:13:10 53° SW 20:13:16 52° SSW
STARLINK-1204 3.2 20:10:34 10° WNW 20:13:37 52° SW 20:13:41 52° SSW
ERBS 2.4 20:10:42 10° NW 20:14:03 58° NE 20:14:20 55° ENE
STARLINK-1241 3.7 20:11:17 10° WNW 20:15:26 70° NNE 20:16:28 48° E
STARLINK-29 4.2 20:15:10 10° W 20:18:13 40° NNW 20:19:44 24° NE
STARLINK-1239 3.6 20:16:15 10° WNW 20:20:24 75° NNE 20:21:14 54° E
IGS 5A 4.1 20:20:27 37° ENE 20:20:34 37° ENE 20:24:25 10° N
SAR-Lupe-2 3.6 20:17:58 10° NNE 20:21:14 59° ENE 20:21:14 59° ENE
ATLAS CENTAUR R/B 3.0 20:18:50 10° N 20:21:41 19° NE 20:22:10 19° NE
Cosmos 1300 3.4 20:18:12 10° SSW 20:21:57 54° WNW 20:25:43 10° N
Resurs 1-3 4.4 20:18:54 17° S 20:22:01 49° W 20:26:17 10° NNW
Spot 2 Rocket 3.5 20:22:15 41° SE 20:23:53 63° ENE 20:28:55 10° N
STARLINK-1240 3.5 20:21:14 10° WNW 20:25:23 80° NNE 20:26:01 62° E
Cosmos 1850 Rocket 3.9 20:24:22 30° S 20:26:45 59° ESE 20:31:51 10° NNE
Cosmos 841 Rocket 4.2 20:23:47 10° N 20:28:41 37° ENE 20:29:32 34° E
Terra 3.2 20:29:53 23° ENE 20:29:53 23° ENE 20:33:35 10° NNE
In-Cosmos 22 Rocket 4.2 20:24:05 10° N 20:29:58 89° WSW 20:32:45 33° S
STARLINK-1216 3.4 20:26:12 10° WNW 20:30:21 85° NNE 20:30:47 71° ESE
Cosmos 2082 Rocket 4.2 20:34:09 13° ENE 20:34:09 13° ENE 20:34:54 10° NE
SPOT 5 3.8 20:31:40 27° ENE 20:31:40 27° ENE 20:35:02 10° N
Meteor 2-10 Rocket 4.0 20:33:52 41° E 20:33:52 41° E 20:38:52 10° NNE
MetOp-B 4.0 20:32:14 40° SSE 20:34:17 88° ENE 20:39:42 10° NNW
SL-08 R/B 4.5 20:28:43 10° N 20:34:50 62° ENE 20:36:45 43° SE
STARLINK-1237 3.4 20:31:09 10° WNW 20:35:19 89° SSW 20:35:33 80° SE
Cosmos 1833 Rocket 3.7 20:39:02 28° ENE 20:39:02 28° ENE 20:42:21 10° NE
STARLINK-1202 3.5 20:36:09 10° WNW 20:40:19 84° SSW 20:40:21 83° SSW
Cosmos 468 Rocket 3.9 20:36:08 10° NNW 20:41:19 87° WSW 20:42:31 54° SSE
Cosmos 192 4.5 20:37:07 10° NNW 20:42:04 70° WSW 20:43:22 47° S
SL-4 R/B 3.1 20:43:06 10° WNW 20:46:11 30° N 20:46:33 29° NNE
ERS-1 Rocket 3.2 20:47:00 51° E 20:47:16 52° ENE 20:52:09 10° N
Cosmos 1408 3.6 20:44:24 10° N 20:46:55 39° NNE 20:46:55 39° NNE
STARLINK-1246 3.8 20:46:06 10° WNW 20:49:54 67° WSW 20:49:54 67° WSW
RESURS DK-1 2.7 20:46:36 10° NNW 20:50:15 54° NNE 20:50:15 54° NNE
BREEZE M DEB (TANK) 3.1 20:46:33 10° W 20:53:10 63° NNW 20:53:25 61° N
Cosmos 1766 Rocket 4.3 20:49:19 10° N 20:52:50 41° NE 20:52:50 41° NE
Cosmos 1570 Rocket 3.9 20:48:40 10° NNW 20:54:02 70° ENE 20:54:32 65° ESE
Okean 3 Rocket 4.0 20:50:49 10° N 20:54:34 52° NE 20:54:34 52° NE
STARLINK-1224 4.0 20:51:07 10° WNW 20:54:43 59° W 20:54:43 59° W
Meteor 2-12 Rocket 4.4 20:49:24 10° N 20:55:31 81° W 20:57:32 45° S
Cosmos 2058 3.6 20:52:58 10° NNW 20:56:57 48° W 20:57:24 46° WSW
COSMOS 2406 3.0 20:54:52 40° SSW 20:57:02 80° ESE 21:02:47 10° NNE
Resurs 01 Rocket 3.2 20:55:17 22° SW 20:57:12 31° W 21:01:09 10° NNW
STARLINK-1203 4.2 20:53:30 10° WNW 20:57:04 53° WSW 20:57:04 53° WSW
CZ-4C R/B 3.5 20:52:22 10° NNW 20:59:06 47° NE 21:01:49 35° E
STARLINK-1225 4.2 20:56:07 10° WNW 20:59:30 51° W 20:59:30 51° W
CZ-2C R/B 4.1 21:00:10 10° N 21:04:48 34° WNW 21:09:28 10° SW
STARLINK-1230 4.5 21:01:06 10° WNW 21:04:16 45° W 21:04:16 45° W
Cosmos 2151 3.4 21:04:12 10° N 21:07:34 56° N 21:07:34 56° N
Cosmos 1697 Rocket 2.6 21:08:37 10° NNW 21:14:19 74° ENE 21:14:29 73° ENE
Cosmos 2369 3.6 21:08:46 10° NNW 21:14:26 72° ENE 21:14:33 72° ENE
Landsat 7 4.5 21:25:10 47° WSW 21:25:13 47° W 21:29:50 10° NNW
Cosmos 1455 4.0 21:31:25 30° NNW 21:31:25 30° NNW 21:33:46 10° N
SPOT 1/Viking Rocket 4.0 21:30:44 51° WSW 21:30:59 52° W 21:36:06 10° NNW
Cosmos 1763 Rocket 4.4 21:26:31 10° NW 21:31:17 38° WSW 21:31:31 38° WSW
Cosmos 1656 4.2 21:27:07 10° NW 21:32:34 48° WSW 21:32:50 48° WSW
Cosmos 540 Rocket 3.7 21:29:48 10° NNW 21:34:20 64° WNW 21:34:20 64° WNW
SL-16 R/B 3.8 21:31:26 10° N 21:35:57 23° NE 21:36:11 23° NE
Cosmos 2360 Rocket 4.5 21:33:29 10° N 21:36:02 13° NE 21:37:32 12° NE
Cosmos 2208 Rocket 4.4 21:31:21 10° NNW 21:36:03 60° W 21:36:03 60° W
Cosmos 1825 4.3 21:38:32 10° NNW 21:40:28 26° NW 21:40:28 26° NW
Nadezhda 3 Rocket 4.1 21:41:27 65° SW 21:42:13 72° W 21:48:31 10° N
Cosmos 2322 Rocket 3.8 21:38:31 10° N 21:42:53 22° NE 21:43:04 22° NE
USA 234 3.2 21:37:29 10° NE 21:44:03 81° NW 21:50:36 10° WSW
Cosmos 1980 Rocket 2.4 21:38:54 10° NNW 21:43:48 62° NNE 21:43:48 62° NNE
Cosmos-2242 4.5 21:45:30 35° NW 21:45:30 35° NW 21:48:54 10° N
Cosmos 1535 Rocket 4.4 21:41:11 10° N 21:46:59 76° NE 21:46:59 76° NE
ASTEX 1 4.3 21:50:00 46° N 21:50:00 46° N 21:53:29 10° N
Meteor 2-3 Rocket 4.0 21:50:24 10° NNW 21:55:21 66° NNW 21:55:21 66° NNW
ATLAS CENTAUR R/B 3.8 21:57:12 10° NW 21:58:21 18° NW 21:58:21 18° NW
Terra 3.2 22:08:45 36° NW 22:08:45 36° NW 22:11:57 10° NNW
Mayak 1.1 22:03:42 10° NNE 22:04:58 19° NNE 22:04:58 19° NNE
Cosmos 1934 Rocket 4.2 22:05:48 10° NNW 22:11:27 64° WNW 22:11:27 64° WNW
Cosmos 2082 Rocket 2.9 22:15:56 49° N 22:15:56 49° N 22:20:10 10° NNE
Cosmos 2278 4.5 22:10:08 10° NNW 22:14:24 46° WNW 22:14:24 46° WNW
Cosmos 1833 Rocket 3.7 22:20:38 40° WNW 22:21:09 41° NW 22:26:29 10° NNE
Cosmos 1605 Rocket 4.4 22:24:16 10° NNW 22:29:21 60° NW 22:29:21 60° NW
Cosmos 2344 4.3 22:26:27 10° NW 22:36:11 84° SW 22:38:35 64° SSE
CZ-4C R/B 3.4 22:40:51 10° NW 22:46:59 52° W 22:46:59 52° W
SL-16 R/B 3.6 23:14:57 10° NNW 23:18:02 33° NW 23:18:02 33° NW
Cosmos 2360 Rocket 3.5 23:15:47 10° NNW 23:19:17 36° N 23:19:17 36° N
USA 234 4.4 23:20:37 10° NE 23:26:36 40° NNW 23:32:36 10° W
Cosmos 2322 Rocket 3.7 23:21:54 10° NNW 23:24:52 32° NW 23:24:52 32° NW
Cosmos 1980 Rocket 4.5 23:24:07 10° WNW 23:25:34 15° WNW 23:25:34 15° WNW
Cosmos 2333 Rocket 3.7 23:38:23 10° NNW 23:42:25 32° NNE 23:42:25 32° NNE
SL-16 R/B 4.3 23:48:42 21° ENE 23:49:56 22° ENE 23:54:32 10° N
